TimePST,TemperatureF,Dew PointF,Humidity,Sea Level PressureIn,VisibilityMPH,Wind Direction,Wind SpeedMPH,Gust SpeedMPH,PrecipitationIn,Events,Conditions,WindDirDegrees,DateUTC
12:15 AM,28.4,28.4,100,30.12,5.0,Calm,Calm,-,N/A,,Overcast,0,2012-12-28 08:15:00
12:35 AM,28.4,26.6,93,30.12,7.0,Calm,Calm,-,N/A,,Overcast,0,2012-12-28 08:35:00
12:55 AM,28.4,28.4,100,30.12,1.2,SE,4.6,-,N/A,,Overcast,140,2012-12-28 08:55:00
1:15 AM,28.4,28.4,100,30.12,0.5,East,5.8,-,N/A,Fog,Light Freezing Fog,90,2012-12-28 09:15:00
1:35 AM,26.6,26.6,100,30.12,0.2,ESE,6.9,-,N/A,Fog,Light Freezing Fog,120,2012-12-28 09:35:00
1:55 AM,26.6,26.6,100,30.12,0.2,SE,6.9,-,N/A,Fog,Light Freezing Fog,130,2012-12-28 09:55:00
2:15 AM,26.6,26.6,100,30.12,0.2,ESE,10.4,-,N/A,Fog,Light Freezing Fog,120,2012-12-28 10:15:00
2:35 AM,26.6,26.6,100,30.11,0.2,ESE,6.9,-,N/A,Fog,Light Freezing Fog,110,2012-12-28 10:35:00
2:55 AM,24.8,24.8,100,30.11,9.0,East,5.8,-,N/A,,Scattered Clouds,100,2012-12-28 10:55:00
3:15 AM,24.8,24.8,100,30.10,10.0,East,6.9,-,N/A,,Clear,100,2012-12-28 11:15:00
3:35 AM,24.8,23.0,93,30.09,10.0,SE,8.1,-,N/A,,Clear,130,2012-12-28 11:35:00
3:55 AM,23.0,23.0,100,30.09,8.0,SE,10.4,-,N/A,,Clear,130,2012-12-28 11:55:00
4:15 AM,24.8,23.0,93,30.09,10.0,SE,11.5,-,N/A,,Clear,130,2012-12-28 12:15:00
4:35 AM,23.0,21.2,93,30.09,10.0,SE,8.1,-,N/A,,Clear,130,2012-12-28 12:35:00
4:55 AM,23.0,21.2,93,30.10,10.0,SE,8.1,-,N/A,,Clear,130,2012-12-28 12:55:00
5:35 AM,23.0,19.4,86,30.11,10.0,Calm,Calm,-,N/A,,Clear,0,2012-12-28 13:35:00
5:55 AM,23.0,19.4,86,30.11,10.0,ESE,5.8,-,N/A,,Clear,120,2012-12-28 13:55:00
6:15 AM,24.8,19.4,80,30.11,10.0,ESE,10.4,-,N/A,,Clear,120,2012-12-28 14:15:00
6:35 AM,23.0,19.4,86,30.11,10.0,SE,10.4,-,N/A,,Clear,130,2012-12-28 14:35:00
6:55 AM,23.0,19.4,86,30.12,10.0,ESE,9.2,-,N/A,,Clear,120,2012-12-28 14:55:00
7:15 AM,24.8,19.4,80,30.12,10.0,ESE,10.4,-,N/A,,Clear,120,2012-12-28 15:15:00
7:35 AM,24.8,19.4,80,30.12,10.0,ESE,10.4,-,N/A,,Clear,120,2012-12-28 15:35:00
7:55 AM,28.4,19.4,69,30.13,10.0,ESE,10.4,-,N/A,,Clear,110,2012-12-28 15:55:00
8:15 AM,32.0,19.4,60,30.13,10.0,ESE,9.2,-,N/A,,Clear,110,2012-12-28 16:15:00
8:35 AM,32.0,19.4,60,30.14,10.0,East,10.4,-,N/A,,Clear,100,2012-12-28 16:35:00
8:55 AM,33.8,19.4,56,30.14,10.0,ESE,11.5,-,N/A,,Clear,110,2012-12-28 16:55:00
9:15 AM,35.6,19.4,52,30.14,10.0,ESE,15.0,-,N/A,,Clear,120,2012-12-28 17:15:00
9:35 AM,35.6,23.0,60,30.15,10.0,ESE,13.8,-,N/A,,Clear,120,2012-12-28 17:35:00
9:55 AM,37.4,19.4,48,30.15,10.0,ESE,17.3,21.9,N/A,,Clear,110,2012-12-28 17:55:00
10:15 AM,37.4,21.2,52,30.15,9.0,SE,15.0,-,N/A,,Clear,130,2012-12-28 18:15:00
10:35 AM,37.4,21.2,52,30.14,9.0,SE,16.1,-,N/A,,Clear,140,2012-12-28 18:35:00
10:55 AM,39.2,21.2,49,30.14,9.0,SE,18.4,-,N/A,,Clear,140,2012-12-28 18:55:00
11:15 AM,39.2,21.2,49,30.13,10.0,ESE,15.0,19.6,N/A,,Clear,120,2012-12-28 19:15:00
11:35 AM,39.2,21.2,49,30.12,10.0,ESE,17.3,21.9,N/A,,Clear,120,2012-12-28 19:35:00
11:55 AM,39.2,19.4,45,30.11,10.0,SE,17.3,21.9,N/A,,Clear,130,2012-12-28 19:55:00
12:15 PM,39.2,19.4,45,30.10,10.0,SE,15.0,19.6,N/A,,Clear,130,2012-12-28 20:15:00
12:35 PM,39.2,17.6,42,30.10,9.0,ESE,13.8,20.7,N/A,,Clear,120,2012-12-28 20:35:00
12:55 PM,39.2,17.6,42,30.10,10.0,ESE,12.7,-,N/A,,Clear,110,2012-12-28 20:55:00
1:15 PM,41.0,17.6,39,30.09,9.0,SE,15.0,18.4,N/A,,Clear,130,2012-12-28 21:15:00
1:35 PM,41.0,17.6,39,30.09,10.0,ESE,12.7,-,N/A,,Clear,120,2012-12-28 21:35:00
1:55 PM,39.2,17.6,42,30.08,10.0,ESE,12.7,-,N/A,,Clear,110,2012-12-28 21:55:00
2:15 PM,39.2,17.6,42,30.08,10.0,ESE,10.4,17.3,N/A,,Clear,120,2012-12-28 22:15:00
2:35 PM,39.2,15.8,39,30.07,10.0,ESE,12.7,-,N/A,,Clear,120,2012-12-28 22:35:00
2:55 PM,39.2,17.6,42,30.07,10.0,ESE,12.7,-,N/A,,Clear,110,2012-12-28 22:55:00
3:15 PM,39.2,15.8,39,30.07,10.0,ESE,11.5,-,N/A,,Clear,110,2012-12-28 23:15:00
3:35 PM,39.2,15.8,39,30.07,10.0,ESE,11.5,-,N/A,,Clear,120,2012-12-28 23:35:00
3:55 PM,39.2,15.8,39,30.07,10.0,ESE,10.4,-,N/A,,Clear,110,2012-12-28 23:55:00
4:15 PM,37.4,15.8,41,30.07,10.0,ESE,10.4,-,N/A,,Clear,110,2012-12-29 00:15:00
4:55 PM,37.4,17.6,45,30.07,10.0,East,6.9,-,N/A,,Clear,100,2012-12-29 00:55:00
5:15 PM,35.6,17.6,48,30.07,10.0,East,9.2,-,N/A,,Clear,100,2012-12-29 01:15:00
5:35 PM,35.6,17.6,48,30.07,10.0,East,6.9,-,N/A,,Clear,100,2012-12-29 01:35:00
5:55 PM,35.6,17.6,48,30.07,10.0,ESE,9.2,-,N/A,,Clear,110,2012-12-29 01:55:00
6:15 PM,35.6,17.6,48,30.08,10.0,ESE,9.2,-,N/A,,Partly Cloudy,110,2012-12-29 02:15:00
6:55 PM,33.8,19.4,56,30.07,10.0,ESE,11.5,-,N/A,,Clear,110,2012-12-29 02:55:00
7:15 PM,33.8,21.2,60,30.07,10.0,SE,9.2,-,N/A,,Mostly Cloudy,130,2012-12-29 03:15:00
7:35 PM,32.0,21.2,64,30.07,10.0,SE,5.8,-,N/A,,Mostly Cloudy,130,2012-12-29 03:35:00
7:55 PM,32.0,23.0,69,30.07,10.0,SE,9.2,-,N/A,,Overcast,130,2012-12-29 03:55:00
8:15 PM,32.0,21.2,64,30.07,10.0,SE,8.1,-,N/A,,Overcast,130,2012-12-29 04:15:00
8:35 PM,33.8,19.4,56,30.07,10.0,SE,8.1,-,N/A,,Overcast,140,2012-12-29 04:35:00
8:55 PM,33.8,21.2,60,30.07,10.0,SE,8.1,-,N/A,,Overcast,140,2012-12-29 04:55:00
9:15 PM,35.6,19.4,52,30.07,10.0,SE,9.2,-,N/A,,Overcast,140,2012-12-29 05:15:00
9:35 PM,35.6,19.4,52,30.06,10.0,ESE,9.2,-,N/A,,Overcast,120,2012-12-29 05:35:00
9:55 PM,35.6,17.6,48,30.05,10.0,ESE,11.5,-,N/A,,Overcast,110,2012-12-29 05:55:00
10:15 PM,35.6,17.6,48,30.06,10.0,SE,8.1,-,N/A,,Overcast,130,2012-12-29 06:15:00
10:35 PM,35.6,17.6,48,30.06,10.0,ESE,9.2,16.1,N/A,,Overcast,110,2012-12-29 06:35:00
10:55 PM,35.6,17.6,48,30.05,10.0,East,10.4,16.1,N/A,,Overcast,100,2012-12-29 06:55:00
11:15 PM,35.6,17.6,48,30.04,10.0,East,10.4,-,N/A,,Mostly Cloudy,100,2012-12-29 07:15:00
11:35 PM,33.8,17.6,52,30.04,10.0,ESE,8.1,-,N/A,,Clear,110,2012-12-29 07:35:00
11:55 PM,33.8,17.6,52,30.03,10.0,East,11.5,-,N/A,,Clear,100,2012-12-29 07:55:00